カタログに戻る

GORIZONT 21

運用中通信GEO
NORAD 20923·PAYLOAD·🇷🇺 Russia

打ち上げ Nov 3, 1990 から Baikonur Cosmodrome

Loading…

TLE

最新Source: Space-Track

元期: Sep 13, 2026, 17:38 UTC

1 20923U 90094A   26256.73488120 -.00000095  00000-0  00000-0 0  9997
2 20923  12.6533 336.1428 0007101 268.4193  88.5169  1.00149186131335

AllMySatでGORIZONT 21をリアルタイム追跡

Download on the App Store